Year,Month,Day,Hour,Minute,Value (Times are PST for temperature in C)
2015,07,06,00,00,21.30
2015,07,06,00,01,21.30
2015,07,06,00,02,21.30
2015,07,06,00,03,21.30
2015,07,06,00,04,21.40
2015,07,06,00,05,21.40
2015,07,06,00,06,21.40
2015,07,06,00,07,21.40
2015,07,06,00,08,21.40
2015,07,06,00,09,21.40
2015,07,06,00,10,21.40
2015,07,06,00,11,21.40
2015,07,06,00,12,21.30
2015,07,06,00,13,21.30
2015,07,06,00,14,21.30
2015,07,06,00,15,21.30
2015,07,06,00,16,21.30
2015,07,06,00,17,21.30
2015,07,06,00,18,21.30
2015,07,06,00,19,21.30
2015,07,06,00,20,21.30
2015,07,06,00,21,21.30
2015,07,06,00,22,21.20
2015,07,06,00,23,21.20
2015,07,06,00,24,21.20
2015,07,06,00,25,21.10
2015,07,06,00,26,21.10
2015,07,06,00,27,21.10
2015,07,06,00,28,21.10
2015,07,06,00,29,21.10
2015,07,06,00,30,21.10
2015,07,06,00,31,21.20
2015,07,06,00,32,21.20
2015,07,06,00,33,21.20
2015,07,06,00,34,21.20
2015,07,06,00,35,21.20
2015,07,06,00,36,21.20
2015,07,06,00,37,21.30
2015,07,06,00,38,21.30
2015,07,06,00,39,21.30
2015,07,06,00,40,21.30
2015,07,06,00,41,21.30
2015,07,06,00,42,21.30
2015,07,06,00,43,21.40
2015,07,06,00,44,21.40
2015,07,06,00,45,21.40
2015,07,06,00,46,21.40
2015,07,06,00,47,21.40
2015,07,06,00,48,21.40
2015,07,06,00,49,21.40
2015,07,06,00,50,21.50
2015,07,06,00,51,21.50
2015,07,06,00,52,21.60
2015,07,06,00,53,21.60
2015,07,06,00,54,21.60
2015,07,06,00,55,21.70
2015,07,06,00,56,21.70
2015,07,06,00,57,21.70
2015,07,06,00,58,21.70
2015,07,06,00,59,21.70
2015,07,06,01,00,21.80
2015,07,06,01,01,21.70
2015,07,06,01,02,21.70
2015,07,06,01,03,21.70
2015,07,06,01,04,21.70
2015,07,06,01,05,21.60
2015,07,06,01,06,21.60
2015,07,06,01,07,21.50
2015,07,06,01,08,21.50
2015,07,06,01,09,21.40
2015,07,06,01,10,21.40
2015,07,06,01,11,21.50
2015,07,06,01,12,21.50
2015,07,06,01,13,21.40
2015,07,06,01,14,21.30
2015,07,06,01,15,21.30
2015,07,06,01,16,21.30
2015,07,06,01,17,21.30
2015,07,06,01,18,21.30
2015,07,06,01,19,21.30
2015,07,06,01,20,21.30
2015,07,06,01,21,21.20
2015,07,06,01,22,21.10
2015,07,06,01,23,21.10
2015,07,06,01,24,21.00
2015,07,06,01,25,20.90
2015,07,06,01,26,20.90
2015,07,06,01,27,20.90
2015,07,06,01,28,20.80
2015,07,06,01,29,20.80
2015,07,06,01,30,20.70
2015,07,06,01,31,20.60
2015,07,06,01,32,20.50
2015,07,06,01,33,20.40
2015,07,06,01,34,20.30
2015,07,06,01,35,20.10
2015,07,06,01,36,20.00
2015,07,06,01,37,19.90
2015,07,06,01,38,19.70
2015,07,06,01,39,19.70
2015,07,06,01,40,19.60
2015,07,06,01,41,19.60
2015,07,06,01,42,19.60
2015,07,06,01,43,19.60
2015,07,06,01,44,19.70
2015,07,06,01,45,19.70
2015,07,06,01,46,19.70
2015,07,06,01,47,19.70
2015,07,06,01,48,19.70
2015,07,06,01,49,19.70
2015,07,06,01,50,19.60
2015,07,06,01,51,19.60
2015,07,06,01,52,19.50
2015,07,06,01,53,19.40
2015,07,06,01,54,19.30
2015,07,06,01,55,19.30
2015,07,06,01,56,19.20
2015,07,06,01,57,19.20
2015,07,06,01,58,19.10
2015,07,06,01,59,19.10
2015,07,06,02,00,19.10
2015,07,06,02,01,19.10
2015,07,06,02,02,19.10
2015,07,06,02,03,19.10
2015,07,06,02,04,19.20
2015,07,06,02,05,19.20
2015,07,06,02,06,19.20
2015,07,06,02,07,19.20
2015,07,06,02,08,19.20
2015,07,06,02,09,19.20
2015,07,06,02,10,19.10
2015,07,06,02,11,19.10
2015,07,06,02,12,19.00
2015,07,06,02,13,18.90
2015,07,06,02,14,18.90
2015,07,06,02,15,18.90
2015,07,06,02,16,18.90
2015,07,06,02,17,18.90
2015,07,06,02,18,18.90
2015,07,06,02,19,18.90
2015,07,06,02,20,18.90
2015,07,06,02,21,18.90
2015,07,06,02,22,18.90
2015,07,06,02,23,18.90
2015,07,06,02,24,18.80
2015,07,06,02,25,18.90
2015,07,06,02,26,18.90
2015,07,06,02,27,18.90
2015,07,06,02,28,19.00
2015,07,06,02,29,19.00
2015,07,06,02,30,19.00
2015,07,06,02,31,19.00
2015,07,06,02,32,19.00
2015,07,06,02,33,19.10
2015,07,06,02,34,19.10
2015,07,06,02,35,19.20
2015,07,06,02,36,19.30
2015,07,06,02,37,19.40
2015,07,06,02,38,19.40
2015,07,06,02,39,19.50
2015,07,06,02,40,19.60
2015,07,06,02,41,19.60
2015,07,06,02,42,19.70
2015,07,06,02,43,19.70
2015,07,06,02,44,19.70
2015,07,06,02,45,19.70
2015,07,06,02,46,19.70
2015,07,06,02,47,19.60
2015,07,06,02,48,19.50
2015,07,06,02,49,19.40
2015,07,06,02,50,19.30
2015,07,06,02,51,19.20
2015,07,06,02,52,19.10
2015,07,06,02,53,19.10
2015,07,06,02,54,19.10
2015,07,06,02,55,19.00
2015,07,06,02,56,18.90
2015,07,06,02,57,18.80
2015,07,06,02,58,18.80
2015,07,06,02,59,18.90
2015,07,06,03,00,19.00
2015,07,06,03,01,19.10
2015,07,06,03,02,19.20
2015,07,06,03,03,19.30
2015,07,06,03,04,19.30
2015,07,06,03,05,19.40
2015,07,06,03,06,19.40
2015,07,06,03,07,19.40
2015,07,06,03,08,19.30
2015,07,06,03,09,19.20
2015,07,06,03,10,19.00
2015,07,06,03,11,18.90
2015,07,06,03,12,18.80
2015,07,06,03,13,18.70
2015,07,06,03,14,18.60
2015,07,06,03,15,18.60
2015,07,06,03,16,18.50
2015,07,06,03,17,18.50
2015,07,06,03,18,18.50
2015,07,06,03,19,18.40
2015,07,06,03,20,18.40
2015,07,06,03,21,18.40
2015,07,06,03,22,18.40
2015,07,06,03,23,18.40
2015,07,06,03,24,18.30
2015,07,06,03,25,18.40
2015,07,06,03,26,18.40
2015,07,06,03,27,18.40
2015,07,06,03,28,18.40
2015,07,06,03,29,18.40
2015,07,06,03,30,18.50
2015,07,06,03,31,18.50
2015,07,06,03,32,18.60
2015,07,06,03,33,18.60
2015,07,06,03,34,18.60
2015,07,06,03,35,18.50
2015,07,06,03,36,18.50
2015,07,06,03,37,18.40
2015,07,06,03,38,18.40
2015,07,06,03,39,18.30
2015,07,06,03,40,18.30
2015,07,06,03,41,18.30
2015,07,06,03,42,18.30
2015,07,06,03,43,18.30
2015,07,06,03,44,18.30
2015,07,06,03,45,18.30
2015,07,06,03,46,18.30
2015,07,06,03,47,18.40
2015,07,06,03,48,18.40
2015,07,06,03,49,18.30
2015,07,06,03,50,18.30
2015,07,06,03,51,18.20
2015,07,06,03,52,18.10
2015,07,06,03,53,18.10
2015,07,06,03,54,18.00
2015,07,06,03,55,18.00
2015,07,06,03,56,17.90
2015,07,06,03,57,17.90
2015,07,06,03,58,17.90
2015,07,06,03,59,18.00
2015,07,06,04,00,18.00
2015,07,06,04,01,18.00
2015,07,06,04,02,17.90
2015,07,06,04,03,17.90
2015,07,06,04,04,18.00
2015,07,06,04,05,18.00
2015,07,06,04,06,18.10
2015,07,06,04,07,18.20
2015,07,06,04,08,18.20
2015,07,06,04,09,18.30
2015,07,06,04,10,18.30
2015,07,06,04,11,18.30
2015,07,06,04,12,18.20
2015,07,06,04,13,18.20
2015,07,06,04,14,18.20
2015,07,06,04,15,18.20
2015,07,06,04,16,18.30
2015,07,06,04,17,18.30
2015,07,06,04,18,18.30
2015,07,06,04,19,18.30
2015,07,06,04,20,18.30
2015,07,06,04,21,18.30
2015,07,06,04,22,18.30
2015,07,06,04,23,18.30
2015,07,06,04,24,18.30
2015,07,06,04,25,18.40
2015,07,06,04,26,18.40
2015,07,06,04,27,18.50
2015,07,06,04,28,18.50
2015,07,06,04,29,18.50
2015,07,06,04,30,18.40
2015,07,06,04,31,18.30
2015,07,06,04,32,18.20
2015,07,06,04,33,18.10
2015,07,06,04,34,18.00
2015,07,06,04,35,18.00
2015,07,06,04,36,17.90
2015,07,06,04,37,17.90
2015,07,06,04,38,18.00
2015,07,06,04,39,18.00
2015,07,06,04,40,18.00
2015,07,06,04,41,18.00
2015,07,06,04,42,18.00
2015,07,06,04,43,18.10
2015,07,06,04,44,18.20
2015,07,06,04,45,18.30
2015,07,06,04,46,18.40
2015,07,06,04,47,18.50
2015,07,06,04,48,18.60
2015,07,06,04,49,18.70
2015,07,06,04,50,18.70
2015,07,06,04,51,18.70
2015,07,06,04,52,18.70
2015,07,06,04,53,18.70
2015,07,06,04,54,18.70
2015,07,06,04,55,18.60
2015,07,06,04,56,18.50
2015,07,06,04,57,18.50
2015,07,06,04,58,18.40
2015,07,06,04,59,18.30
2015,07,06,05,00,18.30
2015,07,06,05,01,18.20
2015,07,06,05,02,18.10
2015,07,06,05,03,18.10
2015,07,06,05,04,18.10
2015,07,06,05,05,18.10
2015,07,06,05,06,18.00
2015,07,06,05,07,18.00
2015,07,06,05,08,18.00
2015,07,06,05,09,17.90
2015,07,06,05,10,17.90
2015,07,06,05,11,17.90
2015,07,06,05,12,17.90
2015,07,06,05,13,17.90
2015,07,06,05,14,17.90
2015,07,06,05,15,17.90
2015,07,06,05,16,17.80
2015,07,06,05,17,17.80
2015,07,06,05,18,17.80
2015,07,06,05,19,17.80
2015,07,06,05,20,17.80
2015,07,06,05,21,17.90
2015,07,06,05,22,17.90
2015,07,06,05,23,18.00
2015,07,06,05,24,18.10
2015,07,06,05,25,18.10
2015,07,06,05,26,18.20
2015,07,06,05,27,18.20
2015,07,06,05,28,18.20
2015,07,06,05,29,18.30
2015,07,06,05,30,18.30
2015,07,06,05,31,18.30
2015,07,06,05,32,18.30
2015,07,06,05,33,18.40
2015,07,06,05,34,18.40
2015,07,06,05,35,18.40
2015,07,06,05,36,18.50
2015,07,06,05,37,18.50
2015,07,06,05,38,18.50
2015,07,06,05,39,18.50
2015,07,06,05,40,18.50
2015,07,06,05,41,18.40
2015,07,06,05,42,18.40
2015,07,06,05,43,18.30
2015,07,06,05,44,18.30
2015,07,06,05,45,18.30
2015,07,06,05,46,18.30
2015,07,06,05,47,18.30
2015,07,06,05,48,18.30
2015,07,06,05,49,18.30
2015,07,06,05,50,18.30
2015,07,06,05,51,18.30
2015,07,06,05,52,18.30
2015,07,06,05,53,18.30
2015,07,06,05,54,18.30
2015,07,06,05,55,18.30
2015,07,06,05,56,18.30
2015,07,06,05,57,18.20
2015,07,06,05,58,18.20
2015,07,06,05,59,18.20
2015,07,06,06,00,18.10
2015,07,06,06,01,18.10
2015,07,06,06,02,18.00
2015,07,06,06,03,18.00
2015,07,06,06,04,17.90
2015,07,06,06,05,17.90
2015,07,06,06,06,17.80
2015,07,06,06,07,17.80
2015,07,06,06,08,17.80
2015,07,06,06,09,17.80
2015,07,06,06,10,17.80
2015,07,06,06,11,17.80
2015,07,06,06,12,17.80
2015,07,06,06,13,17.80
2015,07,06,06,14,17.80
2015,07,06,06,15,17.80
2015,07,06,06,16,17.80
2015,07,06,06,17,17.80
2015,07,06,06,18,17.80
2015,07,06,06,19,17.80
2015,07,06,06,20,17.80
2015,07,06,06,21,17.90
2015,07,06,06,22,17.90
2015,07,06,06,23,17.90
2015,07,06,06,24,17.80
2015,07,06,06,25,17.80
2015,07,06,06,26,17.70
2015,07,06,06,27,17.70
2015,07,06,06,28,17.60
2015,07,06,06,29,17.50
2015,07,06,06,30,17.40
2015,07,06,06,31,17.40
2015,07,06,06,32,17.30
2015,07,06,06,33,17.30
2015,07,06,06,34,17.30
2015,07,06,06,35,17.20
2015,07,06,06,36,17.20
2015,07,06,06,37,17.20
2015,07,06,06,38,17.20
2015,07,06,06,39,17.30
2015,07,06,06,40,17.30
2015,07,06,06,41,17.40
2015,07,06,06,42,17.40
2015,07,06,06,43,17.50
2015,07,06,06,44,17.50
2015,07,06,06,45,17.50
2015,07,06,06,46,17.60
2015,07,06,06,47,17.60
2015,07,06,06,48,17.60
2015,07,06,06,49,17.70
2015,07,06,06,50,17.70
2015,07,06,06,51,17.70
2015,07,06,06,52,17.80
2015,07,06,06,53,17.80
2015,07,06,06,54,17.80
2015,07,06,06,55,17.80
2015,07,06,06,56,17.90
2015,07,06,06,57,17.90
2015,07,06,06,58,17.90
2015,07,06,06,59,17.90
2015,07,06,07,00,17.90
2015,07,06,07,01,17.90
2015,07,06,07,02,18.00
2015,07,06,07,03,18.10
2015,07,06,07,04,18.10
2015,07,06,07,05,18.20
2015,07,06,07,06,18.20
2015,07,06,07,07,18.30
2015,07,06,07,08,18.30
2015,07,06,07,09,18.30
2015,07,06,07,10,18.40
2015,07,06,07,11,18.40
2015,07,06,07,12,18.40
2015,07,06,07,13,18.40
2015,07,06,07,14,18.40
2015,07,06,07,15,18.40
2015,07,06,07,16,18.30
2015,07,06,07,17,18.30
2015,07,06,07,18,18.30
2015,07,06,07,19,18.30
2015,07,06,07,20,18.30
2015,07,06,07,21,18.30
2015,07,06,07,22,18.30
2015,07,06,07,23,18.30
2015,07,06,07,24,18.30
2015,07,06,07,25,18.30
2015,07,06,07,26,18.30
2015,07,06,07,27,18.30
2015,07,06,07,28,18.30
2015,07,06,07,29,18.30
2015,07,06,07,30,18.30
2015,07,06,07,31,18.30
2015,07,06,07,32,18.30
2015,07,06,07,33,18.40
2015,07,06,07,34,18.40
2015,07,06,07,35,18.40
2015,07,06,07,36,18.50
2015,07,06,07,37,18.50
2015,07,06,07,38,18.60
2015,07,06,07,39,18.60
2015,07,06,07,40,18.60
2015,07,06,07,41,18.70
2015,07,06,07,42,18.70
2015,07,06,07,43,18.70
2015,07,06,07,44,18.70
2015,07,06,07,45,18.80
2015,07,06,07,46,18.80
2015,07,06,07,47,18.80
2015,07,06,07,48,18.80
2015,07,06,07,49,18.90
2015,07,06,07,50,18.90
2015,07,06,07,51,18.90
2015,07,06,07,52,19.00
2015,07,06,07,53,19.00
2015,07,06,07,54,19.00
2015,07,06,07,55,19.00
2015,07,06,07,56,19.10
2015,07,06,07,57,19.10
2015,07,06,07,58,19.10
2015,07,06,07,59,19.10
2015,07,06,08,00,19.10
2015,07,06,08,01,19.10
2015,07,06,08,02,19.10
2015,07,06,08,03,19.10
2015,07,06,08,04,19.20
2015,07,06,08,05,19.20
2015,07,06,08,06,19.30
2015,07,06,08,07,19.30
2015,07,06,08,08,19.40
2015,07,06,08,09,19.50
2015,07,06,08,10,19.60
2015,07,06,08,11,19.70
2015,07,06,08,12,19.70
2015,07,06,08,13,19.80
2015,07,06,08,14,19.90
2015,07,06,08,15,20.00
2015,07,06,08,16,20.00
2015,07,06,08,17,20.10
2015,07,06,08,18,20.10
2015,07,06,08,19,20.20
2015,07,06,08,20,20.20
2015,07,06,08,21,20.30
2015,07,06,08,22,20.30
2015,07,06,08,23,20.40
2015,07,06,08,24,20.40
2015,07,06,08,25,20.40
2015,07,06,08,26,20.40
2015,07,06,08,27,20.50
2015,07,06,08,28,20.50
2015,07,06,08,29,20.50
2015,07,06,08,30,20.60
2015,07,06,08,31,20.60
2015,07,06,08,32,20.60
2015,07,06,08,33,20.70
2015,07,06,08,34,20.70
2015,07,06,08,35,20.80
2015,07,06,08,36,20.80
2015,07,06,08,37,20.80
2015,07,06,08,38,20.90
2015,07,06,08,39,20.90
2015,07,06,08,40,21.00
2015,07,06,08,41,21.10
2015,07,06,08,42,21.10
2015,07,06,08,43,21.20
2015,07,06,08,44,21.30
2015,07,06,08,45,21.30
2015,07,06,08,46,21.40
2015,07,06,08,47,21.40
2015,07,06,08,48,21.50
2015,07,06,08,49,21.60
2015,07,06,08,50,21.60
2015,07,06,08,51,21.70
2015,07,06,08,52,21.70
2015,07,06,08,53,21.80
2015,07,06,08,54,21.90
2015,07,06,08,55,21.90
2015,07,06,08,56,22.00
2015,07,06,08,57,22.10
2015,07,06,08,58,22.10
2015,07,06,08,59,22.10
2015,07,06,09,00,22.20
2015,07,06,09,01,22.30
2015,07,06,09,02,22.30
2015,07,06,09,03,22.40
2015,07,06,09,04,22.50
2015,07,06,09,05,22.50
2015,07,06,09,06,22.60
2015,07,06,09,07,22.60
2015,07,06,09,08,22.60
2015,07,06,09,09,22.60
2015,07,06,09,10,22.70
2015,07,06,09,11,22.70
2015,07,06,09,12,22.80
2015,07,06,09,13,22.80
2015,07,06,09,14,22.80
2015,07,06,09,15,22.90
2015,07,06,09,16,22.90
2015,07,06,09,17,22.90
2015,07,06,09,18,23.00
2015,07,06,09,19,23.00
2015,07,06,09,20,23.10
2015,07,06,09,21,23.10
2015,07,06,09,22,23.20
2015,07,06,09,23,23.20
2015,07,06,09,24,23.20
2015,07,06,09,25,23.30
2015,07,06,09,26,23.30
2015,07,06,09,27,23.30
2015,07,06,09,28,23.30
2015,07,06,09,29,23.30
2015,07,06,09,30,23.30
2015,07,06,09,31,23.30
2015,07,06,09,32,23.40
2015,07,06,09,33,23.40
2015,07,06,09,34,23.40
2015,07,06,09,35,23.50
2015,07,06,09,36,23.50
2015,07,06,09,37,23.50
2015,07,06,09,38,23.50
2015,07,06,09,39,23.50
2015,07,06,09,40,23.50
2015,07,06,09,41,23.50
2015,07,06,09,42,23.50
2015,07,06,09,43,23.50
2015,07,06,09,44,23.60
2015,07,06,09,45,23.70
2015,07,06,09,46,23.70
2015,07,06,09,47,23.70
2015,07,06,09,48,23.80
2015,07,06,09,49,23.80
2015,07,06,09,50,23.90
2015,07,06,09,51,23.90
2015,07,06,09,52,23.80
2015,07,06,09,53,23.80
2015,07,06,09,54,23.80
2015,07,06,09,55,23.80
2015,07,06,09,56,23.90
2015,07,06,09,57,23.90
2015,07,06,09,58,24.00
2015,07,06,09,59,24.10
2015,07,06,10,00,24.10
2015,07,06,10,01,24.20
2015,07,06,10,02,24.20
2015,07,06,10,03,24.10
2015,07,06,10,04,24.10
2015,07,06,10,05,24.10
2015,07,06,10,06,24.10
2015,07,06,10,07,24.10
2015,07,06,10,08,24.10
2015,07,06,10,09,24.20
2015,07,06,10,10,24.30
2015,07,06,10,11,24.20
2015,07,06,10,12,24.20
2015,07,06,10,13,24.10
2015,07,06,10,14,24.10
2015,07,06,10,15,24.10
2015,07,06,10,16,24.10
2015,07,06,10,17,24.20
2015,07,06,10,18,24.20
2015,07,06,10,19,24.20
2015,07,06,10,20,24.30
2015,07,06,10,21,24.40
2015,07,06,10,22,24.50
2015,07,06,10,23,24.60
2015,07,06,10,24,24.70
2015,07,06,10,25,24.70
2015,07,06,10,26,24.70
2015,07,06,10,27,24.60
2015,07,06,10,28,24.60
2015,07,06,10,29,24.50
2015,07,06,10,30,24.50
2015,07,06,10,31,24.50
2015,07,06,10,32,24.50
2015,07,06,10,33,24.50
2015,07,06,10,34,24.50
2015,07,06,10,35,24.60
2015,07,06,10,36,24.60
2015,07,06,10,37,24.70
2015,07,06,10,38,24.80
2015,07,06,10,39,24.80
2015,07,06,10,40,24.80
2015,07,06,10,41,24.80
2015,07,06,10,42,24.80
2015,07,06,10,43,24.80
2015,07,06,10,44,24.70
2015,07,06,10,45,24.70
2015,07,06,10,46,24.70
2015,07,06,10,47,24.70
2015,07,06,10,48,24.70
2015,07,06,10,49,24.70
2015,07,06,10,50,24.80
2015,07,06,10,51,24.80
2015,07,06,10,52,24.80
2015,07,06,10,53,24.80
2015,07,06,10,54,24.90
2015,07,06,10,55,24.90
2015,07,06,10,56,24.90
2015,07,06,10,57,24.90
2015,07,06,10,58,24.90
2015,07,06,10,59,24.90
2015,07,06,11,00,24.90
2015,07,06,11,01,24.90
2015,07,06,11,02,24.90
2015,07,06,11,03,24.90
2015,07,06,11,04,24.90
2015,07,06,11,05,24.90
2015,07,06,11,06,24.90
2015,07,06,11,07,25.00
2015,07,06,11,08,25.10
2015,07,06,11,09,25.20
2015,07,06,11,10,25.20
2015,07,06,11,11,25.20
2015,07,06,11,12,25.10
2015,07,06,11,13,25.10
2015,07,06,11,14,25.10
2015,07,06,11,15,25.10
2015,07,06,11,16,25.10
